Flag for Canada Weather past 2 weeks in Saskatoon, Saskatchewan, Canada

Now
81 °F

Broken clouds.


Feels Like: 80 °F
Forecast: N/A
Wind: 9 mph from Southeast

Location: Saskatoon Weather Station

Current Time: Aug 3, 2015 at 5:52:56 PM

Latest Report: Aug 3, 2015 at 5:00 PM


Visibility: 15 mi

Pressure: 29.98 "Hg

Humidity: 32%

Dew point: 48 °F

Location of SaskatoonLocation

Historic Weather in Saskatoon — Graph

°F

Saskatoon temperature yesterday

Maximum temperature yesterday: 77 °F (at 4:00 PM)
Minimum temperature yesterday: 50 °F (at 4:00 AM)
Average temperature yesterday: 64 °F

Past Weeks' High & Low Weather Summary

 TemperatureHumidityPressure
High88 °F (Jul 21, 3:00 PM)100% (Jul 20, 3:00 AM)30.20 "Hg (Jul 20, 3:00 AM)
Low46 °F (Jul 31, 4:00 AM)27% (Jul 25, 2:00 PM)29.56 "Hg (Jul 22, 4:00 AM)
Average66 °F67%29.89 "Hg
* Reported Jul 19 4:00 PM — Aug 3 4:00 PM, Saskatoon, Weather by CustomWeather, © 2015

Note: Actual official high and low records may vary slightly from our data, if they occured in-between our weather recording intervals... More about our weather records

Advertising

Saskatoon weather history for previous 24 hours

 ConditionsComfort  
Time TempWeatherWind HumidityBarometerVisibility
4:00 PM
Mon, Aug 3
81 °FBroken clouds.7 mph34%29.99 "Hg15 mi
3:00 PM81 °FScattered clouds.6 mph32%30.00 "Hg15 mi
2:00 PM79 °FPartly sunny.3 mph32%30.01 "Hg15 mi
1:00 PM79 °FPartly sunny.6 mph32%30.02 "Hg15 mi
12:00 PM77 °FBroken clouds.3 mph34%30.02 "Hg15 mi
11:00 AM75 °FPassing clouds.6 mph41%30.03 "Hg15 mi
10:00 AM72 °FPassing clouds.5 mph53%30.03 "Hg15 mi
9:00 AM68 °FPassing clouds.3 mph64%30.04 "Hg15 mi
8:00 AM63 °FPartly sunny.No wind77%30.03 "Hg15 mi
7:00 AM57 °FPartly sunny.2 mph88%30.03 "Hg15 mi
6:00 AM52 °FFog.6 mph94%30.04 "Hg15 mi
5:00 AM54 °FFog.3 mph94%30.03 "Hg15 mi
4:00 AM52 °FFog.2 mph100%30.03 "Hg15 mi
3:00 AM52 °FClear.2 mph94%30.03 "Hg15 mi
2:00 AM54 °FClear.No wind94%30.03 "Hg15 mi
1:00 AM54 °FClear.2 mph94%30.03 "Hg15 mi
12:00 AM57 °FClear.No wind82%30.03 "Hg15 mi
11:00 PM
Sun, Aug 2
61 °FPassing clouds.No wind72%30.01 "Hg15 mi
10:00 PM63 °FPassing clouds.2 mph73%30.01 "Hg15 mi
9:00 PM66 °FPassing clouds.5 mph68%30.01 "Hg15 mi
8:00 PM72 °FPassing clouds.3 mph53%30.00 "Hg15 mi
7:00 PM75 °FPassing clouds.7 mph44%30.00 "Hg15 mi
6:00 PM75 °FScattered clouds.9 mph41%30.01 "Hg15 mi
5:00 PM75 °FScattered clouds.7 mph41%30.02 "Hg15 mi
Weather by CustomWeather, © 2015

See weather overviewHow to use our weather pages